Denver, CO

9:35 PM MDT on May 27, 2017 (GMT -0600)
Denver International

Weather History for KDEN - November, 2012

Change the Weather History Date:

Tuesday, November 27, 2012

  Actual Average Record
Temperature  
Mean Temperature 37 °F 33 °F  
Max Temperature 59 °F 47 °F 74 °F (1950)
Min Temperature 15 °F 20 °F -14 °F (1887)
Degree Days  
Heating Degree Days 28 32  
Month to date heating degree days 578 704  
Since 1 July heating degree days 1135 1285  
Cooling Degree Days 0 0  
Month to date cooling degree days 0 0  
Year to date cooling degree days 1236 769  
Moisture  
Dew Point 5 °F    
Average Humidity 46    
Maximum Humidity 84    
Minimum Humidity 8    
Precipitation  
Precipitation 0.00 in 0.01 in 0.70 in (1983)
Month to date precipitation 0.27 0.56  
Year to date precipitation 9.84 13.90  
Snow  
Snow 0.00 in - - ()
Month to date snowfall 1.7  
Since 1 July snowfall 7.2  
Since 1 September snowfall 7.2  
Snow Depth 0.00 in    
Sea Level Pressure  
Sea Level Pressure 30.16 in    
Wind  
Wind Speed 10 mph (SSW)    
Max Wind Speed 22 mph    
Max Gust Speed 26 mph    
Visibility 10 miles    
Events      
T = Trace of Precipitation, MM = Missing Value Source: NWS Daily Summary

Daily Weather History Graph

Daily Weather History Graph

Search for Another Location

Airport or City:

Trip Planner

Search our weather history database for the weather conditions in past years. The results will help you decide how hot, cold, wet, or windy it might be!

Date:

Astronomy

Nov. 27, 2012 Rise Set
Actual Time 6:57 AM MST 4:35 PM MST
Civil Twilight 6:27 AM MST 5:05 PM MST
Nautical Twilight 5:54 AM MST 5:38 PM MST
Astronomical Twilight 5:21 AM MST 6:10 PM MST
Moon 4:08 PM MST (11/27) 6:04 AM MST (11/27)
Length of Visible Light 10h 37m
Length of Day
9h 38m
Waxing Gibbous, 99% of the Moon is Illuminated
Nov 27
Waxing Gibbous
Nov 28
Full
Dec 6
Last Quarter
Dec 13
New
Dec 19
First Quarter

Hourly Weather History & Observations

Time (MST) Temp. Windchill Dew Point Humidity Pressure Visibility Wind Dir Wind Speed Gust Speed Precip Events Conditions
12:53 AM 23.0 °F 14.7 °F 18.0 °F 81% 30.23 in 9.0 mi WSW 6.9 mph - N/A   Partly Cloudy
1:53 AM 19.9 °F 9.3 °F 14.0 °F 78% 30.24 in 9.0 mi SW 9.2 mph - N/A   Partly Cloudy
2:53 AM 21.0 °F 13.4 °F 15.1 °F 78% 30.22 in 10.0 mi SSW 5.8 mph - N/A   Partly Cloudy
3:53 AM 19.0 °F 10.0 °F 10.9 °F 71% 30.21 in 10.0 mi SW 6.9 mph - N/A   Partly Cloudy
4:53 AM 28.0 °F 17.0 °F 12.0 °F 51% 30.18 in 10.0 mi SSW 13.8 mph - N/A   Scattered Clouds
5:53 AM 35.1 °F 26.4 °F 7.0 °F 31% 30.17 in 10.0 mi SW 12.7 mph - N/A   Scattered Clouds
6:53 AM 34.0 °F 25.0 °F 5.0 °F 30% 30.19 in 10.0 mi SSW 12.7 mph - N/A   Scattered Clouds
7:53 AM 37.0 °F 27.7 °F 3.0 °F 24% 30.19 in 10.0 mi SSW 16.1 mph - N/A   Mostly Cloudy
8:53 AM 50.0 °F - 1.0 °F 13% 30.15 in 10.0 mi SSW 16.1 mph - N/A   Mostly Cloudy
9:53 AM 54.0 °F - 1.0 °F 12% 30.12 in 10.0 mi SW 16.1 mph - N/A   Mostly Cloudy
10:53 AM 55.9 °F - -0.9 °F 10% 30.12 in 10.0 mi SW 11.5 mph - N/A   Mostly Cloudy
11:53 AM 55.9 °F - -5.1 °F 8% 30.11 in 10.0 mi SSW 8.1 mph - N/A   Mostly Cloudy
12:53 PM 57.0 °F - -5.1 °F 8% 30.08 in 10.0 mi SSW 11.5 mph - N/A   Mostly Cloudy
1:53 PM 54.0 °F - 5.0 °F 14% 30.10 in 10.0 mi South 5.8 mph - N/A   Mostly Cloudy
2:53 PM 51.1 °F - -0.0 °F 12% 30.11 in 10.0 mi SW 8.1 mph - N/A   Mostly Cloudy
3:53 PM 50.0 °F - -2.9 °F 11% 30.13 in 10.0 mi SW 5.8 mph - N/A   Mostly Cloudy
4:53 PM 48.0 °F - -5.1 °F 11% 30.12 in 10.0 mi ENE 4.6 mph - N/A   Mostly Cloudy
5:53 PM 48.0 °F - 1.9 °F 15% 30.11 in 10.0 mi NNW 11.5 mph - N/A   Mostly Cloudy
6:53 PM 41.0 °F 35.2 °F 10.9 °F 29% 30.18 in 10.0 mi East 9.2 mph - N/A   Scattered Clouds
7:53 PM 37.0 °F 28.1 °F 10.0 °F 33% 30.20 in 10.0 mi SSE 15.0 mph - N/A   Scattered Clouds
8:53 PM 37.0 °F 28.9 °F 7.0 °F 29% 30.16 in 10.0 mi SSE 12.7 mph - N/A   Clear
9:53 PM 36.0 °F 28.0 °F 8.1 °F 31% 30.15 in 10.0 mi South 11.5 mph - N/A   Scattered Clouds
10:53 PM 35.1 °F 28.6 °F 6.1 °F 30% 30.15 in 10.0 mi SSW 8.1 mph - N/A   Scattered Clouds
11:53 PM 32.0 °F 26.4 °F 7.0 °F 35% 30.17 in 10.0 mi West 5.8 mph - N/A   Scattered Clouds